Theta_e
340 339 338 340 344 343 342 343 338 338 338 340 342 340 337 338 338 333 331 343 343 342 341 342 340 339 334 330 329 335 332 328 328 328 328 333 332 332 330 328 332 326 328
342 342 340 341 341 340 339 339 340 339 338 338 337 338 340 340 338 338 335 336 341 341 343 344 342 342 340 335 333 329 330 331 330 330 329 329 335 333 331 331 330 326 326
342 343 342 342 343 342 342 342 342 342 342 339 340 340 339 340 342 338 341 338 339 342 342 344 343 344 342 339 337 335 331 331 331 333 332 330 330 332 334 332 331 331 329
343 340 339 343 345 343 342 341 341 342 341 341 338 337 336 337 341 339 341 342 339 339 341 343 342 342 341 341 341 338 337 336 334 334 332 333 333 332 331 331 332 332 332
342 342 341 341 342 342 343 342 343 342 341 340 340 337 336 336 337 338 337 338 341 340 341 342 342 342 341 341 341 342 342 340 338 337 335 334 335 334 334 333 334 332 332
343 340 340 341 340 341 342 341 340 341 340 341 341 340 339 339 336 334 335 337 342 342 341 340 341 342 342 342 343 343 343 344 342 340 338 335 336 337 336 336 334 335 335
342 342 342 341 341 340 339 341 339 338 338 340 341 340 339 339 338 336 336 338 340 343 343 342 342 340 341 344 343 341 341 343 343 344 342 338 337 336 338 339 339 337 336
342 342 340 340 342 342 342 342 340 340 338 339 341 340 339 340 340 336 339 337 338 340 339 342 340 339 339 339 340 342 341 342 342 344 344 342 341 337 337 340 341 339 337
340 340 340 339 339 338 338 339 339 339 339 339 340 341 340 339 339 339 339 338 339 340 341 341 341 340 339 339 340 340 342 342 342 342 343 343 343 342 341 339 340 340 339
341 339 338 339 338 339 339 339 340 340 340 339 339 340 341 339 337 337 338 338 338 339 338 339 340 340 341 341 341 340 341 341 343 344 343 343 337 341 340 341 341 341 341
338 337 335 336 338 339 339 339 338 339 339 339 339 339 340 340 340 338 337 338 338 339 340 340 341 341 341 342 340 340 341 342 338 336 336 337 338 342 341 341 341 341 340
336 335 336 338 338 339 339 338 338 338 338 339 339 339 340 340 339 339 339 337 339 338 338 338 339 339 340 340 340 340 340 338 336 336 335 336 337 337 338 339 339 339 338
333 335 338 339 339 338 339 338 338 338 337 338 338 338 339 339 339 340 340 340 339 338 337 338 339 339 339 339 339 340 339 337 336 335 335 335 336 336 336 335 335 334 335
333 334 337 339 338 339 340 339 338 337 338 338 339 339 339 339 340 340 340 339 339 337 337 339 338 338 338 338 337 336 336 336 336 337 335 334 334 336 336 337 337 337 337
327 333 336 337 338 339 339 339 339 338 338 338 338 338 339 339 339 339 339 339 339 337 338 339 340 339 339 337 337 337 336 336 336 336 336 335 335 335 335 335 335 336 335
330 331 333 335 336 336 336 337 337 338 339 340 339 339 338 338 336 336 337 338 338 338 338 338 338 338 338 337 336 336 336 335 334 332 332 332 333 334 333 332 332 331 330
330 331 331 334 335 335 335 335 335 334 334 335 337 338 339 339 339 337 337 338 338 339 338 337 337 338 337 335 334 334 334 333 333 332 332 331 331 330 329 329 328 329 329
329 329 328 331 333 333 334 334 334 334 334 334 334 335 336 337 337 338 338 339 339 339 338 338 338 337 335 333 333 333 332 331 332 332 330 329 329 328 327 326 326 326 326
327 326 326 328 330 330 331 330 330 330 330 331 332 333 333 334 334 334 335 337 337 337 337 338 336 335 333 333 332 331 331 330 329 329 328 327 327 326 326 326 325 324 324
324 325 325 326 326 327 328 327 327 327 328 329 330 331 332 332 333 333 333 334 335 336 337 336 335 334 333 332 330 329 329 328 327 327 326 326 325 325 325 324 322 321 321
328 324 325 325 325 326 326 326 325 326 327 327 326 327 328 328 329 330 330 330 330 332 332 332 333 333 332 330 328 327 327 326 325 324 322 321 321 320 320 320 319 319 319
332 329 325 325 325 325 326 326 325 325 325 323 322 322 323 324 324 324 325 325 324 325 328 328 328 329 328 327 327 326 325 323 322 321 320 320 320 320 319 319 318 317 314
335 332 328 325 325 325 326 326 325 325 324 323 321 320 320 320 320 320 321 322 322 323 324 325 325 324 324 325 324 324 324 323 322 321 320 319 318 318 316 315 314 312 309
336 334 330 326 325 325 326 326 325 323 323 322 321 321 321 321 322 321 320 320 319 320 321 322 323 321 321 321 321 321 322 322 321 319 316 314 311 309 308 307 306 304 303
338 336 331 328 326 325 326 326 325 323 322 321 320 319 321 321 321 320 319 317 315 314 314 314 312 308 307 306 309 319 319 318 318 318 317 314 311 309 308 306 304 304 304
336 335 332 330 326 325 326 326 326 324 322 322 322 320 319 320 321 320 320 318 313 312 310 309 309 308 307 307 304 303 312 314 314 315 316 316 312 311 310 308 305 305 305
Wind_Speed
10 12 8 6 8 8 7 7 5 6 5 7 8 10 13 14 16 17 17 18 13 12 10 8 10 11 12 12 13 13 14 13 13 13 12 13 12 12 10 10 11 11 10
13 11 9 8 10 10 9 11 12 12 11 11 13 14 13 17 15 16 18 18 15 14 13 13 11 13 13 14 14 15 15 14 14 14 13 14 15 14 13 12 13 13 12
13 14 12 11 10 11 12 13 14 16 16 17 18 19 20 19 20 15 16 16 18 16 14 15 15 14 15 15 16 17 17 16 16 16 15 15 15 15 16 14 14 14 13
12 14 14 11 11 14 14 13 13 16 17 18 16 16 19 21 21 17 16 18 17 18 17 15 15 14 14 16 18 19 19 19 19 18 18 18 18 17 17 17 16 16 15
7 7 8 11 12 13 14 16 16 16 16 16 18 15 13 16 21 19 18 18 18 18 18 19 17 17 19 19 19 20 21 22 21 21 20 19 18 20 20 19 19 19 19
5 7 9 11 11 13 14 16 17 18 19 17 16 17 16 17 21 25 22 20 19 15 15 16 14 14 15 17 18 19 21 22 23 23 24 24 22 20 22 23 22 22 21
6 8 7 9 11 12 12 14 15 17 19 19 19 19 18 18 18 17 17 17 17 16 16 15 14 14 14 14 15 18 19 24 25 23 23 25 27 25 24 24 26 26 25
4 6 8 9 11 13 15 16 16 17 16 17 18 17 14 15 17 17 16 19 19 17 18 15 16 15 14 13 15 17 21 22 21 20 24 20 29 32 29 26 24 27 27
6 7 9 10 13 14 13 13 15 16 15 15 15 14 5 6 7 12 11 16 15 15 16 13 15 14 13 15 16 14 16 18 19 21 21 20 18 24 32 33 30 26 26
9 11 11 11 11 10 10 11 13 15 14 14 14 16 18 7 1 4 5 7 10 12 15 16 18 15 15 16 14 12 12 13 12 11 13 14 18 18 21 27 33 27 27
10 12 11 9 7 7 9 10 11 11 12 12 12 12 16 17 15 10 9 6 4 1 3 6 12 12 14 13 11 11 12 10 10 13 15 15 13 14 15 18 9 10 12
10 9 9 8 5 6 7 6 6 4 4 7 10 12 14 16 18 17 17 12 9 5 1 2 4 7 9 9 12 13 11 13 10 14 14 12 13 14 17 19 10 12 15
8 7 7 6 4 4 4 4 5 3 2 3 6 10 12 13 12 10 12 15 11 8 5 5 6 7 7 7 9 12 10 10 11 13 12 9 12 13 12 16 18 19 19
8 10 9 9 7 4 3 4 4 4 3 1 2 5 8 10 11 10 11 12 13 9 10 9 8 6 5 5 5 5 6 10 13 13 11 10 12 11 13 13 14 16 16
11 11 10 8 7 7 6 5 4 3 3 1 1 3 5 7 8 9 11 11 10 9 11 8 7 6 6 5 5 8 10 11 12 13 13 13 13 12 13 13 12 12 12
10 11 9 8 8 7 7 7 7 9 7 4 2 0 3 4 6 8 10 10 12 11 10 11 10 10 8 7 6 9 11 12 11 9 8 8 8 7 9 8 7 6 7
10 11 12 10 9 8 9 8 9 9 8 6 5 5 3 2 2 4 7 8 8 11 13 11 11 10 6 5 6 8 8 11 7 5 6 7 7 8 7 8 8 7 6
11 12 13 12 11 11 10 10 10 10 9 8 8 6 4 4 3 1 2 4 5 4 9 11 10 11 7 6 6 7 8 8 5 5 5 7 7 7 7 7 8 7 8
10 11 12 12 12 13 13 13 12 12 12 11 10 8 10 9 6 3 0 1 2 4 7 8 10 10 5 6 6 5 6 3 1 3 4 6 7 6 5 5 5 4 3
8 9 9 10 10 10 11 12 12 12 12 12 13 13 12 11 11 10 7 4 2 1 3 4 5 6 6 5 5 3 3 2 1 2 3 5 5 5 6 6 6 5 6
6 8 7 8 8 9 10 12 12 12 13 13 14 13 13 12 11 11 10 9 8 7 6 4 2 4 4 6 3 2 4 2 2 5 5 3 4 4 5 4 4 4 4
3 6 6 5 5 6 10 11 12 12 12 12 13 13 13 12 13 12 11 10 10 9 9 6 3 2 2 1 5 5 3 2 6 4 1 1 2 3 5 4 4 4 4
2 4 4 3 3 4 8 10 10 9 9 9 11 12 11 12 12 12 11 10 9 9 8 7 4 2 2 4 5 6 4 4 6 4 2 3 3 4 4 4 4 3 4
2 1 2 2 1 2 5 7 9 8 8 8 9 9 9 10 10 11 10 9 9 7 7 6 4 5 3 4 5 5 5 6 6 3 3 4 4 3 2 1 1 2 2
6 3 3 1 2 1 2 4 7 8 7 7 7 7 7 8 9 10 9 9 9 8 9 9 9 9 9 8 5 4 3 4 5 6 6 5 3 2 1 1 1 2 2
8 5 4 2 3 3 2 0 2 5 5 7 7 6 6 6 6 8 9 8 7 7 7 6 7 8 10 12 9 6 6 7 8 10 8 6 5 4 3 4 3 2 1
Wind_Direction
240 261 260 244 251 258 263 254 263 245 243 249 244 240 235 242 248 246 239 237 247 247 232 241 233 248 249 244 243 237 242 239 237 235 232 230 236 232 232 231 235 233 229
243 259 248 248 252 256 255 256 263 266 258 258 257 258 252 247 243 249 251 244 244 252 244 240 248 241 247 249 247 247 247 247 246 244 241 238 236 239 236 235 239 238 233
259 250 260 254 262 267 266 259 256 260 262 266 273 267 255 242 239 261 247 247 248 253 260 252 256 252 246 251 251 250 249 252 254 249 249 243 242 243 245 243 242 245 243
264 258 261 262 272 267 277 272 270 264 261 266 271 272 250 242 236 255 254 250 251 251 253 250 249 256 254 258 256 254 253 252 251 255 252 249 248 248 248 250 248 247 247
263 267 248 262 266 278 273 276 271 270 266 269 263 261 258 244 245 246 245 251 248 248 251 254 253 258 260 264 262 262 259 256 253 251 253 253 256 254 251 251 251 252 251
253 248 271 275 264 274 276 275 271 265 264 263 257 254 257 252 245 251 261 240 240 239 247 247 249 259 266 269 275 268 266 263 256 253 248 247 252 258 254 250 251 251 253
251 253 261 276 276 279 274 281 283 276 263 256 255 256 259 262 255 247 223 229 246 247 249 250 252 256 262 272 281 275 270 265 267 263 254 251 251 253 256 252 248 248 248
285 282 285 290 290 286 280 282 279 275 269 257 248 252 267 267 252 240 241 239 240 253 251 256 257 260 268 274 275 271 267 269 273 269 266 265 260 250 251 254 254 247 247
303 302 303 303 301 295 288 281 277 273 269 256 242 232 222 232 213 229 241 245 236 251 242 243 249 256 270 281 285 276 273 280 280 275 269 283 285 260 256 254 255 254 249
318 315 312 305 299 292 294 290 283 275 266 252 244 232 226 235 215 180 193 199 239 244 245 243 244 250 275 287 282 284 286 276 275 273 274 271 286 275 258 257 274 241 242
324 320 315 310 305 302 299 304 300 282 255 249 245 237 232 238 244 237 194 202 246 252 224 230 220 248 271 276 268 266 267 255 279 277 273 272 276 261 271 281 263 250 260
327 326 332 331 310 309 322 316 318 322 246 245 239 239 232 234 240 242 255 225 266 252 71 247 251 256 263 263 254 258 261 274 285 306 306 294 276 274 270 276 287 272 275
343 345 4 6 352 341 345 0 9 355 301 259 246 236 228 231 240 247 233 245 242 232 252 249 239 253 258 257 257 258 280 285 295 315 322 321 300 287 286 294 286 282 279
18 24 28 26 23 11 6 3 6 5 7 273 219 209 222 229 238 245 244 245 244 228 226 225 229 238 257 259 280 259 302 302 307 313 318 296 312 300 293 297 292 287 285
32 31 29 29 31 38 35 25 13 21 26 352 218 193 203 216 224 235 233 233 227 220 208 227 218 233 237 256 271 285 303 308 308 312 314 317 320 321 319 320 323 322 324
42 38 37 39 44 45 51 46 46 52 45 51 66 191 231 229 225 226 224 227 227 232 226 218 236 236 241 262 300 314 321 323 322 329 350 357 356 6 8 355 11 15 2
45 46 45 46 51 57 62 57 55 57 53 51 54 60 76 108 201 223 218 226 229 240 230 223 230 213 232 257 287 292 303 310 326 335 342 338 339 343 340 343 342 347 348
47 48 50 55 58 59 61 63 60 57 55 55 58 61 81 77 76 112 200 219 219 221 216 222 206 198 217 255 274 295 314 306 314 323 342 353 357 357 2 12 21 22 22
46 45 47 57 64 68 69 64 58 56 56 54 55 63 69 64 64 61 337 231 208 218 229 236 211 206 231 242 267 285 294 276 300 324 345 337 340 357 354 357 357 357 1
45 44 45 48 53 61 65 62 58 58 59 61 60 61 65 64 63 62 59 68 79 213 224 219 209 213 226 235 258 268 275 280 335 338 329 339 332 329 332 342 3 26 43
39 41 46 47 47 53 67 65 61 59 61 64 68 68 68 68 67 64 60 62 60 74 93 118 167 198 236 267 246 271 275 255 358 329 343 10 11 6 5 8 14 25 31
32 30 38 44 48 56 67 64 60 61 63 66 65 63 62 64 63 59 58 58 59 67 83 85 92 98 77 351 323 315 300 346 332 331 94 33 353 325 318 321 327 337 354
345 356 9 30 44 57 65 63 58 56 59 69 69 70 68 66 62 55 50 48 49 55 64 100 110 88 324 307 323 319 291 293 312 320 267 286 288 292 297 296 311 330 347
262 327 317 308 41 69 80 66 56 52 65 72 71 68 65 62 62 56 44 40 49 59 69 65 64 73 38 341 324 309 300 302 307 295 296 324 332 330 335 335 355 23 56
242 247 275 265 273 164 87 68 58 53 61 57 61 63 55 48 44 46 41 47 50 60 70 70 70 63 45 23 351 327 333 319 309 305 298 305 316 310 337 333 49 72 72
245 232 226 230 242 234 220 156 63 64 60 55 56 46 41 33 32 23 22 30 36 51 57 52 42 26 19 15 7 340 299 285 291 293 301 299 278 257 277 257 241 228 183